Погода в Ореле

Погода в Ореле : погода сейчас, прогноз погоды и архив. Всё, что Вы хотите узнать о погоде в Ореле!

Хотите узнать прогноз погоды в Ореле? Тогда Вам сюда: Погода в Ореле

Поиск расширенной информации на нашем сайте:

Другие новости

Новости СМИ2

Главная страница сайта

Новости сайта

03.07.2017

Напоминаем, что на нашем специализированном сайте Метеоцентр.Азия вы можете получить высокодетализированные автоматические прогнозы погоды по пунктам России, СНГ и мира в авиационном формате (включающие направление и скорость ветра, видимость, явления погоды, количество и форму облачности, нижнюю и верхнюю границу облачности).

Рекомендуем: Семейный отдых в турции с детьми www.tui.ru.

Погода в Ореле - сегодня

Время (UTC), дата Ветер
(°,м/с) 
Видим.   Явления Облачность Т
(°С)
Тd
(°С)
f(%) Тe
(°С)
Pmin
(гПа)
dP
(гПа)
Po
(мм)
O2
(г/м3)
Тmin Tmax R s Состояние
почвы
12 20.08.17 130 (ЮВ) 10 км    3/3 600 м 
[Cu hum]
+29.5 +9.3 28 +30  1022.5  -1  750  271           
15 20.08.17 130 (ЮВ) 10 км    3/0 средняя 
[Ac trans]
+28.5 +11.1 34 +31  1021.4  -1.2  749  271           
18 20.08.17 110 (В) 10 км    ясно 
+23.7 +11.7 47 +27  1021.7  -0.1  749  276    +30       
21 20.08.17 130 (ЮВ) 10 км    ясно 
+20 +10.2 53 +22  1021.2  -0.8  741  276           
00 21.08.17 130 (ЮВ) 10 км    ясно 
+17.2 +9.8 62 +19  1020.5  -0.8  748  282           
03 21.08.17 130 (ЮВ) 10 км    3/0 средняя 
[Ac trans]
+16.7 +9.9 64 +19  1019.7  -0.9  747  282  +16.3         
06 21.08.17 150 (ЮВ) 10 км    ясно 
+23.6 +12.6 50 +28  1018.6  -0.5  747  275  +16.3         
09 21.08.17 140 (ЮВ) 10 км    ясно 
+29.6 +11 32 +32  1017.3  -0.8  746  269           
12 21.08.17 170 (Ю) 10 км    4/3 600 м верхняя 
[Cu hum|Ci fib]
+30.2 +10.7 30 +32  1015.9  -1.3  745  269           
15 21.08.17 170 (Ю) 2{10}  10 км    8/0 средняя 
[Ac trans]
+27.4 +12.1 39 +32  1015.2  -1  745  270           
18 21.08.17 140 (ЮВ) 10 км    4/0 средняя 
[Ac trans]
+23.5 +10.5 44 +25  1015.2  -0.3  744  274    +30.5       
21 21.08.17 130 (ЮВ) 10 км    ясно 
+20.3 +10.2 52 +22  1015.2  -0.2  744  277           
00 22.08.17 130 (ЮВ) 10 км    9/9 600 м средняя 
[Ac trans]
+20.4 +10.5 53 +22  1014.1  -1  744  277           
03 22.08.17 130 (ЮВ) 10 км    9/0 средняя 
[Ac trans]
+19.2 +10.3 56 +22  1013.8  -0.3  743  278  +19         
06 22.08.17 120 (ЮВ) 10 км    9/5 600 м кучево-дожд., средняя 
[Cb calv|Ac trans]
+20.7 +11.5 56 +24  1013.4  -0.4  743  276  +18.8         
09 22.08.17 120 (ЮВ) 10 км    9/4 600 м кучево-дожд., верхняя 
[Cb calv|Ci fib]
+26.9 +11.8 39 +31  1011.3  -1.5  742  270           
12 22.08.17 150 (ЮВ) 3{10}  10 км    9/8 600 м кучево-дожд., средняя, верхняя 
[Cb calv|Ac trans|Ci fib]
+28.5 +7 26 +29  1009.3  -2  740  269           
15 22.08.17 090 (В) 2{10}  10 км    10/5 600 м кучево-дожд., средняя 
[Cb calv|As op]
+27.2 +11.1 37 +30  1006.8  -2.4  739  269           
18 22.08.17 100 (В) 10 км    10/6 600 м кучево-дожд., средняя 
[Cb calv|As op]
+24.8 +6.8 32 +25  1005.8  -1.2  738  271    +29.1       
21 22.08.17 160 (Ю) 2{11}  10 км    10/10 600 м кучево-дожд. 
[Cb calv]
+22.8 +8.8 41 +23  1005.5  -0.4  737  273           
00 23.08.17 110 (В) 10 км  слаб. ливневой дождь  10/10 600 м кучево-дожд. 
[Cb calv]
+17.7 +14.4 81 +27  1004.7  -1.1  737  276           
03 23.08.17 110 (В) 10 км  {ливн. осадки}  10/10 600 м кучево-дожд. 
[Cb calv]
+17.8 +13.9 78 +26  1002.6  -2.1  735  275  +17.3       
06 23.08.17 130 (ЮВ) 10 км  в посл. час ливневой дождь  10/10 600 м кучево-дожд. 
[Cb calv]
+16.8 +15.6 93 +28  1002.5  -0.2  735  276  +16.5       
09 23.08.17 170 (Ю) 10 км  {ливн. осадки}  10/10 300 м кучево-дожд. 
[Cb calv]
+18.6 +16.8 89 +32  1002.4  0.1  735  273           
12 23.08.17 190 (Ю) 5-10{10}  10 км  {ливн. осадки}  9/8 600 м кучево-дожд., средняя, верхняя 
[Cb calv|Ac trans|Ci sp]
+19.5 +14.9 75 +29  1004.1  1.6  736  274           
Время (UTC), дата Ветер
(°,м/с) 
Видим.   Явления Облачность Т
(°С)
Тd
(°С)
f(%) Тe
(°С)
Pmin
(гПа)
dP
(гПа)
Po
(мм)
O2
(г/м3)
Тmin Tmax R s Состояние
почвы

Для получения пояснительной информации подведите курсор к названию столбца.

ПОГОДА в Ореле - архив

Всё, что Вы хотите узнать о погоде в Ореле - удобно и подробно!

Выберите нужную дату (начиная с 1 января 2015* года) и нажмите кнопку "Найти".
Будут отображены архивные сводки погоды по пункту Орел, начиная с указанной даты.


Отображать данные в формате CSV (для использования в таблицах Excel)


Внимание! Наш архив погоды предназначен исключительно для личного некоммерческого использования в познавательных целях. Если Вам необходимы официальные справки о состоянии погоды (для производственных, юридических, коммерческих и т.п. целей), обращайтесь в органы Росгидромета.

*Примечание: данная дата относится к архиву по метеостанциям СССР (Россия, СНГ, Балтия).
Архив по метеостанциям Зарубежной Европы и Азии (кроме Китая) хранится 10 дней, по другим регионам земного шара (Китай, Африка, Америка, Австралия, Океания) - 1 день.

Орел - район местоположения метеостанции


Название, широта, долгота, высота метеостанции:
Орел 52.9°ш. 36°д. 196 м над ур. моря [Российская Федерация]

Дополнительная информация

В oтличие oт бoльшинства пoгoдных сайтoв мы публикуем пoдрoбную метеoинфoрмацию в детальнoм прoфессиoнальнoм фoрмате.

Характеристики температуры и влажнoсти вoздуха измеряются на высoте 2 м в тени вдали oт зданий и деревьев.
Скoрoсть ветра измеряется на высoте 10 м (на урoвне рoста челoвека скoрoсть ветра ниже в 1.5-2 раза). Если метеoстанция нахoдится в гoрoде или в лесу, тo скoрoсть ветра занижена на 2-4 м/с пo сравнению с oткрытым местoм. Скoрoсть ветра над акватoриями крупных рек и oзёр, а также на вершинах хoлмoв на 2-5 м/с выше, чем в oбычных услoвиях.
Атмoсфернoе давление в разных тoчках местнoсти мoжет значительнo oтличаться oт давления на метеoстанции, в зависимoсти oт услoвий рельефа (при пoдъёме на 10 м давление пoнижается примернo на 1 мм рт.ст.).